When you browse on this site, cookies collect data to enhance your experience and personalize the content and advertising you see.
Visit our Privacy Policy to learn more. By continuing to use the site, you agree to this use of cookies and data.
  • In Portugal
  • List of Countries
  • For 7 days
  • Water Temperature
  • Weather Map
  • Weather Widgets
  • user-avatar
    Login

    Hourly Weather Samos

    Today, 5 June, Friday

    Time Temperature Precipitation Wind Pressure Humidity
    00:00 +14°C° 0 mm 4 mps 721 mmHg 86%
    01:00 +14°C° 0 mm 4 mps 721 mmHg 86%
    02:00 +14°C° 0 mm 3 mps 721 mmHg 85%
    03:00 +14°C° 0 mm 3 mps 721 mmHg 84%
    04:00 +14°C° 0 mm 3 mps 721 mmHg 82%
    05:00 +13°C° 0 mm 3 mps 720 mmHg 81%
    06:00 +16°C° 0 mm 3 mps 721 mmHg 73%
    07:00 +18°C° 0 mm 3 mps 721 mmHg 65%
    08:00 +19°C° 0 mm 3 mps 721 mmHg 57%
    09:00 +21°C° 0 mm 4 mps 721 mmHg 53%
    10:00 +22°C° 0 mm 4 mps 721 mmHg 49%
    11:00 +23°C° 0 mm 4 mps 721 mmHg 45%
    12:00 +23°C° 0 mm 4 mps 721 mmHg 45%
    13:00 +23°C° 0 mm 4 mps 721 mmHg 44%
    14:00 +23°C° 0 mm 5 mps 720 mmHg 44%
    15:00 +23°C° 0 mm 5 mps 720 mmHg 45%
    16:00 +23°C° 0 mm 5 mps 720 mmHg 47%
    17:00 +22°C° 0 mm 5 mps 719 mmHg 49%
    18:00 +21°C° 0 mm 5 mps 719 mmHg 55%
    19:00 +19°C° 0 mm 5 mps 719 mmHg 61%
    20:00 +17°C° 0 mm 5 mps 719 mmHg 66%
    21:00 +17°C° 0 mm 5 mps 719 mmHg 68%
    22:00 +16°C° 0 mm 5 mps 719 mmHg 69%
    23:00 +16°C° 0 mm 5 mps 719 mmHg 70%

    Tomorrow, 6 June, Saturday

    Time Temperature Precipitation Wind Pressure Humidity
    00:00 +16°C° 0 mm 6 mps 718 mmHg 67%
    01:00 +16°C° 0 mm 6 mps 718 mmHg 65%
    02:00 +15°C° 0 mm 6 mps 717 mmHg 63%
    03:00 +16°C° 0 mm 6 mps 717 mmHg 60%
    04:00 +16°C° 0 mm 6 mps 717 mmHg 58%
    05:00 +16°C° 0 mm 6 mps 717 mmHg 55%
    06:00 +17°C° 0 mm 6 mps 717 mmHg 51%
    07:00 +20°C° 0 mm 7 mps 717 mmHg 47%
    08:00 +22°C° 0 mm 7 mps 717 mmHg 43%
    09:00 +23°C° 0 mm 7 mps 718 mmHg 39%
    10:00 +24°C° 0 mm 7 mps 718 mmHg 35%
    11:00 +27°C° 0 mm 7 mps 718 mmHg 30%
    12:00 +26°C° 0 mm 7 mps 718 mmHg 32%
    13:00 +26°C° 0 mm 8 mps 718 mmHg 33%
    14:00 +26°C° 0 mm 9 mps 717 mmHg 34%
    15:00 +24°C° 0 mm 8 mps 717 mmHg 38%
    16:00 +24°C° 0 mm 8 mps 717 mmHg 42%
    17:00 +23°C° 0 mm 7 mps 717 mmHg 45%
    18:00 +21°C° 0 mm 7 mps 717 mmHg 53%
    19:00 +20°C° 0 mm 6 mps 717 mmHg 60%
    20:00 +17°C° 0 mm 5 mps 717 mmHg 67%
    21:00 +17°C° 0 mm 5 mps 717 mmHg 70%
    22:00 +17°C° 0 mm 4 mps 717 mmHg 72%
    23:00 +17°C° 0 mm 4 mps 717 mmHg 75%

    Day after tomorrow, 7 June, Sunday

    Time Temperature Precipitation Wind Pressure Humidity
    00:00 +17°C° 0 mm 4 mps 717 mmHg 75%
    01:00 +15°C° 0 mm 4 mps 717 mmHg 75%
    02:00 +15°C° 0 mm 4 mps 717 mmHg 76%
    03:00 +15°C° 0 mm 4 mps 717 mmHg 75%
    04:00 +15°C° 0 mm 4 mps 717 mmHg 75%
    05:00 +15°C° 0 mm 4 mps 716 mmHg 74%
    06:00 +17°C° 0 mm 3 mps 717 mmHg 71%
    07:00 +18°C° 0 mm 3 mps 717 mmHg 67%
    08:00 +20°C° 0 mm 3 mps 717 mmHg 64%
    09:00 +20°C° 0 mm 4 mps 718 mmHg 62%
    10:00 +21°C° 0 mm 4 mps 718 mmHg 61%
    11:00 +22°C° 0 mm 4 mps 718 mmHg 60%
    12:00 +22°C° 0 mm 4 mps 718 mmHg 59%
    13:00 +22°C° 0 mm 4 mps 718 mmHg 58%
    14:00 +23°C° 0 mm 4 mps 718 mmHg 58%
    15:00 +22°C° 0 mm 3 mps 718 mmHg 60%
    16:00 +22°C° 0 mm 3 mps 718 mmHg 63%
    17:00 +21°C° 0 mm 3 mps 717 mmHg 65%
    18:00 +20°C° 0 mm 2 mps 718 mmHg 72%
    19:00 +20°C° 0 mm 1 mps 718 mmHg 79%
    20:00 +19°C° 0 mm 1 mps 718 mmHg 86%
    21:00 +19°C° 0 mm 1 mps 718 mmHg 87%
    22:00 +18°C° 0 mm 1 mps 718 mmHg 88%
    23:00 +16°C° 0 mm 0 mps 718 mmHg 89%

    8 June, Monday

    Time Temperature Precipitation Wind Pressure Humidity
    00:00 +16°C° 0 mm 0 mps 718 mmHg 89%
    01:00 +16°C° 0 mm 0 mps 718 mmHg 89%
    02:00 +15°C° 0 mm 0 mps 717 mmHg 88%
    03:00 +16°C° 0 mm 1 mps 717 mmHg 88%
    04:00 +16°C° 0 mm 1 mps 717 mmHg 87%
    05:00 +16°C° 0 mm 2 mps 717 mmHg 87%
    06:00 +17°C° 0 mm 2 mps 717 mmHg 80%
    07:00 +19°C° 0 mm 2 mps 717 mmHg 73%
    08:00 +20°C° 0 mm 2 mps 717 mmHg 66%
    09:00 +21°C° 0 mm 2 mps 718 mmHg 62%
    10:00 +22°C° 0 mm 3 mps 718 mmHg 59%
    11:00 +24°C° 0 mm 3 mps 718 mmHg 55%
    12:00 +25°C° 0 mm 4 mps 718 mmHg 54%
    13:00 +25°C° 0 mm 5 mps 718 mmHg 53%
    14:00 +25°C° 0 mm 5 mps 717 mmHg 52%
    15:00 +25°C° 0 mm 5 mps 717 mmHg 52%
    16:00 +25°C° 0 mm 5 mps 717 mmHg 52%
    17:00 +25°C° 0 mm 5 mps 717 mmHg 53%
    18:00 +23°C° 0 mm 5 mps 717 mmHg 58%
    19:00 +22°C° 0 mm 4 mps 717 mmHg 63%
    20:00 +20°C° 0 mm 4 mps 717 mmHg 69%
    21:00 +20°C° 0 mm 4 mps 717 mmHg 70%
    22:00 +20°C° 0 mm 4 mps 717 mmHg 71%
    23:00 +19°C° 0 mm 3 mps 717 mmHg 72%

    9 June, Tuesday

    Time Temperature Precipitation Wind Pressure Humidity
    00:00 +19°C° 0 mm 3 mps 717 mmHg 74%
    01:00 +19°C° 0 mm 3 mps 717 mmHg 75%
    02:00 +18°C° 0 mm 3 mps 717 mmHg 76%
    03:00 +18°C° 0 mm 3 mps 717 mmHg 76%
    04:00 +18°C° 0 mm 3 mps 717 mmHg 76%
    05:00 +18°C° 0 mm 3 mps 717 mmHg 75%
    06:00 +19°C° 0 mm 3 mps 717 mmHg 70%
    07:00 +21°C° 0 mm 3 mps 717 mmHg 65%
    08:00 +22°C° 0 mm 3 mps 717 mmHg 60%
    09:00 +24°C° 0 mm 3 mps 717 mmHg 57%
    10:00 +25°C° 0 mm 3 mps 717 mmHg 54%
    11:00 +27°C° 0 mm 3 mps 718 mmHg 51%
    12:00 +27°C° 0 mm 4 mps 717 mmHg 50%
    13:00 +27°C° 0 mm 5 mps 717 mmHg 49%
    14:00 +27°C° 0 mm 6 mps 717 mmHg 49%
    15:00 +27°C° 0 mm 6 mps 717 mmHg 48%
    16:00 +27°C° 0 mm 5 mps 717 mmHg 47%
    17:00 +27°C° 0 mm 5 mps 717 mmHg 47%
    18:00 +26°C° 0 mm 5 mps 717 mmHg 52%
    19:00 +23°C° 0 mm 5 mps 717 mmHg 57%
    20:00 +22°C° 0 mm 4 mps 717 mmHg 62%
    21:00 +22°C° 0 mm 4 mps 717 mmHg 62%
    22:00 +21°C° 0 mm 4 mps 717 mmHg 63%
    23:00 +21°C° 0 mm 3 mps 717 mmHg 63%

    10 June, Wednesday

    Time Temperature Precipitation Wind Pressure Humidity
    00:00 +21°C° 0 mm 3 mps 717 mmHg 64%
    01:00 +21°C° 0 mm 3 mps 717 mmHg 65%
    02:00 +20°C° 0 mm 3 mps 717 mmHg 66%
    03:00 +20°C° 0 mm 2 mps 717 mmHg 67%
    04:00 +20°C° 0 mm 2 mps 716 mmHg 68%
    05:00 +19°C° 0 mm 2 mps 716 mmHg 69%
    06:00 +21°C° 0 mm 2 mps 717 mmHg 64%
    07:00 +23°C° 0 mm 2 mps 717 mmHg 59%
    08:00 +25°C° 0 mm 2 mps 717 mmHg 54%
    09:00 +26°C° 0 mm 2 mps 717 mmHg 52%
    10:00 +27°C° 0 mm 3 mps 717 mmHg 49%
    11:00 +28°C° 0 mm 4 mps 717 mmHg 46%
    12:00 +28°C° 0 mm 4 mps 717 mmHg 45%
    13:00 +28°C° 0 mm 4 mps 717 mmHg 44%
    14:00 +29°C° 0 mm 4 mps 717 mmHg 43%
    15:00 +28°C° 0 mm 5 mps 717 mmHg 44%
    16:00 +28°C° 0 mm 5 mps 716 mmHg 45%
    17:00 +28°C° 0 mm 6 mps 716 mmHg 46%
    18:00 +26°C° 0 mm 5 mps 716 mmHg 51%
    19:00 +25°C° 0 mm 5 mps 716 mmHg 55%
    20:00 +22°C° 0 mm 4 mps 716 mmHg 60%
    21:00 +22°C° 0 mm 4 mps 716 mmHg 60%
    22:00 +22°C° 0 mm 3 mps 716 mmHg 60%
    23:00 +22°C° 0 mm 3 mps 716 mmHg 61%
    Show more